FAUNA (43052 NORAD) Tracking and Keplerian Element Data

This shows tracking and keplerian element data for the satellite.

Feedback or suggestion? Click here.




ElementValue
Catalog43052
NameFAUNA
Epoch Orbit5344
Epoch Day323.15838783
Epoch Year2018
RAAN5.3711
Inclination51.6407
Eccentricity0.0002794
Argument of Perigee117.4438
Mean Anonmoly242.6831
Mean Motion15.40136427
Decay Rate3.063E-05
L11 43052U 17071R 18323.15838783 .00003063 00000-0 85068-4 0 9993
L22 43052 51.6407 5.3711 0002794 117.4438 242.6831 15.40136427 53441

Live tracking and technical data element details for FAUNA (NORAD 43052). FAUNA can be tracked NOW for your location showing map with azimuth and elevation plus other details from your city location.

Track the satellite on the map from your city or location and see movement details for azimuth, elevation, latitude, longitude, range, height, and movement on the map or in text.







IsCatalogInMostPopularTable: catalog: 43052, numindb: 153
Update: records affected: 1



GetName: 43052 FAUNA

Hit Count: updated at: Mon, 19 Nov 2018 13:43:04 GMT